Location: Gadern
(49.5873°N, 8.8138°E)
Time: 00:54:08
(UTC+00:00)

USA 234 - Pass Details

Date: 19 May 2025
Orbit: 1097 x 1111 km, 123.0° (Epoch: 13 June)

Event Time Altitude Azimuth Distance (km) Brightness Sun altitude
Rises 20:47:37 0° 56° (NE) 3,925 6.1 -12.6°
Reaches altitude 10° 20:50:07 10° 58° (ENE) 2,967 5.5 -12.8°
Maximum altitude 20:56:41 80° 146° (SE) 1,125 3.2 -13.4°
Drops below altitude 10° 21:03:16 10° 233° (SW) 2,966 5.5 -14.0°
Sets 21:05:45 0° 235° (SW) 3,923 6.1 -14.2°
